Regional Weather Roundup
Issued by NWS

Home | Current Version | Previous Version | Graphics & Text | Print | Product List | Glossary On
Versions: 1 2 3 4 5 6 7 8 9 10 11 12 13 14 15 16 17 18 19 20 21 22 23 24 25 26 27 28 29 30 31 32 33 34 35 36 37 38 39 40 41 42 43 44 45 46 47 48 49 50
932
ASUS43 KFSD 232102
RWRSD

WEATHER ROUNDUP FOR SOUTH DAKOTA
NATIONAL WEATHER SERVICE SIOUX FALLS SD
400 PM CDT THU MAR 23 2017

NOTE: "FAIR" INDICATES FEW OR NO CLOUDS BELOW 12,000 FEET WITH NO
SIGNIFICANT WEATHER AND/OR OBSTRUCTIONS TO VISIBILITY.


SDZ001>005-009-010-012>017-232200-
NORTHWEST AND NORTH CENTRAL SOUTH DAKOTA

CITY           SKY/WX    TMP DP  RH WIND       PRES   REMARKS
BUFFALO          N/A     45  41  86 N20       29.69R
FAITH            N/A     51  42  71 N24       29.66R
MOBRIDGE       SUNNY     61  35  37 N15       29.63R
$$

SDZ012>016-024>037-041>051-057-063-072>074-232200-
SOUTHWEST AND SOUTH CENTRAL SOUTH DAKOTA

CITY           SKY/WX    TMP DP  RH WIND       PRES   REMARKS
RAPID CTY ARPT MOSUNNY   54  43  66 N36G43    29.66R
PIERRE         CLOUDY    63  41  44 E12       29.57F
CUSTER         PTSUNNY   53  39  59 NE5G20    29.66R
ELLSWORTH AFB  CLOUDY    54  44  71 NW29G36   29.67R
PHILIP         SUNNY     66  40  38 N16       29.58S
PINE RIDGE     SUNNY     69  42  37 VRB3      29.58F
SPEARFISH      FAIR      41  41 100 NW13G20   29.75R
WINNER         CLOUDY    57  47  69 S10       29.60F
$$

SDZ004>011-016>023-039-040-232200-
NORTHEAST SOUTH DAKOTA

CITY           SKY/WX    TMP DP  RH WIND       PRES   REMARKS
ABERDEEN       CLOUDY    43  33  68 SE10      29.70F
WATERTOWN      CLOUDY    37  36  96 SE8       29.72F FOG
BROOKINGS      LGT RAIN  40  38  93 SE15      29.71F FOG
SISSETON         N/A     37  37 100 SE10      29.75F
$$

SDZ017-020-022-023-036>040-048>070-232200-
SOUTHEAST SOUTH DAKOTA

CITY           SKY/WX    TMP DP  RH WIND       PRES   REMARKS
SIOUX FALLS    CLOUDY    49  40  71 SE12      29.71F
HURON          CLOUDY    47  38  71 SE13      29.67F
CHAMBERLAIN    CLOUDY    56  48  73 SE10      29.62F
MITCHELL       CLOUDY    52  43  71 SE10      29.67F
YANKTON        CLOUDY    55  46  71 S17G24    29.65F
$$

ABBREVIATIONS USED IN REMARKS
   TC - TEMPERATURE IN CELSIUS
  WCI - WIND CHILL INDEX
   HX - HEAT INDEX
  VSB - VISIBILITY





USA.gov is the U.S. government's official web portal to all federal, state and local government web resources and services.